Other Public Products
Issued by NWS Grand Forks, ND

Home | Current Version | Previous Version | Graphics & Text | Print | Product List | Glossary On
Versions: 1 2 3 4 5 6 7 8 9 10 11 12 13 14 15 16 17 18 19 20 21 22 23 24 25 26 27 28 29 30 31 32 33 34 35 36 37 38 39 40 41 42 43 44 45 46 47 48 49 50
181
FPUS83 KFGF 230131
OPUFGF
PRAIRIE TO PINES WEATHER ROUNDUP
NATIONAL WEATHER SERVICE EASTERN NORTH DAKOTA/GRAND FORKS ND
800 PM CDT THU JUN 22 2017

 **SATELLITE DATA USED TO AUGMENT SKY COVER AT AUTOMATED STATIONS**
 *****  WEATHER ACROSS EASTERN NORTH DAKOTA  *****

CITY           SKY/WX    TMP DP  RH WIND       PRES   REMARKS
GRAND FORKS    FAIR      72  40  31 W17G25    29.66S
GRAND FORKS AF FAIR      70  40  34 NW15G26   29.68R
GRAND CITY NWS NOT AVBL
BUXTON           N/A     73  40  31 W21         N/A
DEVILS LAKE    FAIR      64  44  48 W23       29.72R
FARGO          FAIR      73  35  25 W15       29.72S
WAHPETON ARPT  FAIR      72  34  25 NW9G17    29.75S
$$

 *****  WEATHER ACROSS CENTRAL AND WESTERN NORTH DAKOTA  *****

CITY           SKY/WX    TMP DP  RH WIND       PRES   REMARKS
JAMESTOWN      FAIR      71  37  28 NW18G28   29.75S
BISMARCK       FAIR      74  31  20 NW22G32   29.81S
MINOT          PTSUNNY   63  45  51 W25G38    29.78R
MINOT AFB      PTSUNNY   61  46  59 NW28G37   29.77R
GARRISON         N/A     63  41  44 NW30G44   29.81R
WILLISTON      CLOUDY    63  48  58 NW20G31   29.91R
DICKINSON      FAIR      65  30  27 NW33G43   29.89R
HETTINGER      FAIR      70  28  21 NW24G37   29.92R
$$

 *****  OTHER OBSERVATIONS NORTHEAST NORTH DAKOTA  *****

CITY           SKY/WX    TMP DP  RH WIND       PRES   REMARKS
WALHALLA       NOT AVBL
LANGDON        MOCLDY    61  46  59 W22G28    29.68R
CAVALIER       FAIR      63  45  51 W21G30    29.64R
GRAFTON        MOCLDY    66  43  42 W30G41    29.68S
CANDO          NOT AVBL
FORT TOTTEN      N/A     66  44  45 NW9       29.95S
ROLLA            N/A     59  45  58 W28G33    29.70R
RUGBY          NOT AVBL
 ***** THE ABOVE OBSERVATIONS ARE NON NWS ARE NOT QUALITY
        CONTROLLED AND MAY MIS-REPORT RAIN FOR SNOW...
$$

 *****  OTHER OBSERVATIONS SOUTHEAST NORTH DAKOTA *****

CITY           SKY/WX    TMP DP  RH WIND       PRES   REMARKS
COOPERSTOWN    FAIR      70  36  28 W21G28    29.73S
VALLEY CITY    FAIR      70  37  30 W14G25    29.76S
OAKES          NOT AVBL
GWINNER        CLEAR     70  41  35 W7        29.77S
SHEYENNE NWR     N/A     73  38  27 NW8       29.95S
BUFFALO          N/A     73  33  23 NW17        N/A
WYNDMERE       NOT AVBL
 ***** THE ABOVE OBSERVATIONS ARE NON NWS ARE NOT QUALITY
       CONTROLLED AND MAY MIS-REPORT RAIN FOR SNOW...
$$

  *****  WEATHER ACROSS NORTHERN MINNESOTA  *****

CITY           SKY/WX    TMP DP  RH WIND       PRES   REMARKS
FLAG ISLAND    FAIR      64  43  45 W13       29.58F
WARROAD        FAIR      64  48  55 W10G16    29.62R
ROSEAU           N/A     64  48  55 W12G18    29.63R
HALLOCK        PTSUNNY   64  45  48 W15       29.63F
THF RVR FALLS  FAIR      68  41  37 W10       29.68S
HALSTAD          N/A     71  41  33 W9          N/A
FOSSTON        FAIR      64  43  45 W9        29.71S
BAUDETTE       FAIR      68  39  34 W13G26    29.61R
WASKISH        FAIR      68  46  45 W16G24    29.65F
CROOKSTON      FAIR      70  41  35 W14G22    29.68S
$$
  *****  WEATHER ACROSS CENTRAL AND WEST MINNESOTA  *****

CITY           SKY/WX    TMP DP  RH WIND       PRES   REMARKS
BEMIDJI        FAIR      69  38  33 W15G21    29.69F
PARK RAPIDS    FAIR      72  40  31 W10       29.72R
WADENA         FAIR      70  45  40 W8        29.74R
DETROIT LAKES  FAIR      70  36  28 W14G22    29.75S
MOORHEAD       FAIR      72  36  26 W17       29.73S
FERGUS FALLS   FAIR      70  45  40 NW10      29.73R
ELBOW LAKE     FAIR      72  44  37 NW12G17   29.77R
MORRIS MN      FAIR      72  55  56 SW10      29.77R
STAPLES        FAIR      72  46  40 W6        29.74R
WHEATON        FAIR      73  41  31 NW9       29.78R
$$
  *****  WEATHER ELSEWHERE ACROSS MINNESOTA  *****

CITY           SKY/WX    TMP DP  RH WIND       PRES   REMARKS
DULUTH         FAIR      71  50  47 W9        29.67S
INTRNTL FALLS  FAIR      68  37  32 W10G20    29.61R
ELY            MOCLDY    63  52  67 SW6       29.65S
CLOQUET        MOCLDY    64  48  55 SW12      29.70R
BRAINERD       FAIR      73  48  41 W12       29.72R
HIBBING        FAIR      68  50  52 W7        29.66S
ALEXANDRIA     FAIR      69  57  65 SW10      29.77R
SAINT CLOUD    FAIR      72  51  47 W9        29.75R
MINNEAPOLIS    MOCLDY    70  62  76 NW6       29.74R
$$

  *****  WEATHER ACROSS SOUTH DAKOTA  *****

CITY           SKY/WX    TMP DP  RH WIND       PRES   REMARKS
SIOUX FALLS    PTSUNNY   70  52  52 N10       29.80R
BROOKINGS      FAIR      70  53  54 N6        29.82
WATERTOWN      PTSUNNY   70  57  63 S6        29.80R
HURON          FAIR      74  52  46 SW5       29.81R
SISSETON         N/A     76  42  29 NW10      29.76R
ABERDEEN       FAIR      76  39  26 NW13G18   29.79R
MITCHELL       FAIR      75  46  35 N9        29.83R
PIERRE         FAIR      76  45  33 NW9       29.83R
MOBRIDGE       PTSUNNY   75  33  21 NW16      29.82R
RAPID CITY     FAIR      74  35  24 N21G29    29.93R
$$

  *****  SOME WEATHER IN NEARBY STATES *****

CITY           SKY/WX    TMP DP  RH WIND       PRES   REMARKS
GLASGOW MT     CLOUDY    55  45  68 NW20G30   30.07R
GREAT FALLS MT FAIR      61  37  41 NE13      30.23S
CHEYENNE WY    FAIR      73  38  27 NE12      30.03S
SCOTTSBLUFF NE CLOUDY    76  49  38 NE14      29.94R
OMAHA NE       MOCLDY    87  72  60 N9        29.63R HX  93
DES MOINES IA  FAIR      85  70  60 SW8       29.65S
DAVENPORT IA   FAIR      81  70  69 S6        29.70R
CHICAGO IL     FAIR      83  69  62 S16G23    29.71R
EAU CLAIRE WI  LGT RAIN  66  64  93 NW3       29.73
LA CROSSE WI   CLOUDY    70  68  93 N5        29.70R
$$

  *****  SOME NATIONAL WEATHER *****

CITY           SKY/WX    TMP DP  RH WIND       PRES   REMARKS
LA GUARDIA NY  MOCLDY    77  68  73 VRB7      29.90S
RALEIGH NC     CLOUDY    75  71  87 SW13      30.06R
ATLANTA GA     MOCLDY    75  73  93 SE5       30.02S
NEW ORLEANS LA MOCLDY    82  77  84 S13       29.84R HX  90
OKLAHOMA CITY  FAIR      87  66  49 S7        29.65S
ALBUQUERQUE NM FAIR      99  25   7 W16       29.87S HX  92
SALT LAKE CITY FAIR      85  31  14 N13       30.00R
LOS ANGELES CA FAIR      68  61  78 W12       29.81S
BOISE ID       FAIR      81  28  14 NW23G32   30.05F
SEATTLE WA     FAIR      74  43  32 NW10      30.23F
$$

*** WEATHER ACROSS MANITOBA...SASKATCHEWAN AND ONTARIO ***
                ***ONTARIO***

CITY           SKY/WX    TMP DP  RH WIND       PRES   REMARKS
GERALDTON      MOCLDY    66  48  52 NW14G23   29.58R
THUNDER BAY    PTCLDY    73  43  33 SW7       29.57S
SIOUX LOOKOUT  PTSUNNY   61  46  59 S3        29.55F
TORONTO        CLOUDY    68  61  77 SE6       29.78F
BIG TROUT LK   MOSUNNY   59  52  77 SE7       29.52S
PICKLE LAKE    PTCLDY    66  45  45 E3        29.52R
DRYDEN         PTSUNNY   59  46  63 W7        29.55S
KENORA         PTSUNNY   59  45  58 W12G23    29.57R
$$
                *** MANITOBA***

CITY           SKY/WX    TMP DP  RH WIND       PRES   REMARKS
BRANDON        PTSUNNY   61  50  67 W16G25    29.64R
DAUPHIN        LGT RAIN  57  54  88 W6        29.60R
ISLAND LAKE    PTSUNNY   64  50  59 SE5       29.49R
PILOT MOUND      N/A     59  46  63 W17G28      N/A
THE PAS        LGT RAIN  55  52  88 NW16G25   29.66R
THOMPSON       LGT RAIN  57  55  94 N15G24    29.58R
WINNIPEG       PTSUNNY   61  48  63 W17       29.56
LYNN LAKE      CLOUDY    54  45  71 N18G25    29.74R
CHURCHILL      CLOUDY    39  36  87 NE22G30   29.75R
GILLAM         PTSUNNY   63  54  72 NE16G25   29.57R
$$
                ***SASKATCHEWAN***

CITY           SKY/WX    TMP DP  RH WIND       PRES   REMARKS
ESTEVAN        LGT RAIN  57  54  88 NW22G31   29.82R
KINDERSLEY     PTSUNNY   55  39  54 NW18G28   30.09R
LLOYDMINSTER   PTSUNNY   55  39  54 NW15G24   30.09R
PRINCE ALBERT  PTSUNNY   55  43  62 N24G33    29.93R
REGINA         CLOUDY    54  46  76 NW28G37   29.91R
YORKTON        CLOUDY    57  54  88 NW22G37   29.72R



USA.gov is the U.S. government's official web portal to all federal, state and local government web resources and services.